Regional Weather Roundup
Issued by NWS

Home | Current Version | Previous Version | Graphics & Text | Print | Product List | Glossary Off
Versions: 1 2 3 4 5 6 7 8 9 10 11 12 13 14 15 16 17 18 19 20 21 22 23 24 25 26 27 28 29 30 31 32 33 34 35 36 37 38 39 40 41 42 43 44 45 46 47 48 49 50

000
ASUS43 KMPX 250210
RWRMN
WEATHER ROUNDUP FOR MINNESOTA
NATIONAL WEATHER SERVICE TWIN CITIES/CHANHASSEN MN
900 PM CDT MON APR 24 2017


NOTE: "FAIR" INDICATES FEW OR NO CLOUDS BELOW 12,000 FEET WITH NO
SIGNIFICANT WEATHER AND/OR OBSTRUCTIONS TO VISIBILITY. N/A MEANS
CURRENT SKY AND/OR WEATHER CONDITIONS ARE NOT AVAILABLE.

MNZ060>063-068>070-250300-
   Twin Cities Metro

CITY           SKY/WX    TMP DP  RH WIND       PRES   REMARKS
TWIN CITIES    CLOUDY    66  33  29 SE12      29.55F
ST PAUL        CLOUDY    63  38  39 SE8       29.56F
CRYSTAL        CLOUDY    65  31  28 SE9       29.54S
BLAINE         CLOUDY    66  34  30 SE7       29.55F
LAKEVILLE      CLOUDY    63  34  34 SE12      29.56S
EDEN PRAIRIE   CLOUDY    66  33  29 SE12      29.53F
SOUTH ST PAUL  CLOUDY    65  34  31 SE6       29.56F
LAKE ELMO      CLOUDY    64  34  32 SE8       29.58F
$$
MNZ001>005-007-008-013>017-022>024-027-028-250300-
   Northwest Minnesota

CITY           SKY/WX    TMP DP  RH WIND       PRES   REMARKS
BEMIDJI        CLOUDY    42  41  97 E9        29.56S
HALLOCK        CLOUDY    34  30  86 N14       29.71R WCI  24
ROSEAU         CLOUDY    34  28  80 NE17      29.68S WCI  23
WARROAD        LGT SNOW  34  28  80 NE17G25   29.69R WCI  23
CROOKSTON      CLOUDY    36  36 100 N13       29.63R
FOSSTON        CLOUDY    39  37  93 N9        29.56R
DETROIT LAKES  CLOUDY    50  46  87 CALM      29.53S
MOORHEAD       CLOUDY    39  37  93 N22       29.58R
PARK RAPIDS    LGT RAIN  50  46  86 E8        29.53F
MAHNOMEN       CLOUDY    45  44  97 N7        29.54R
$$
MNZ006-009>011-018-025>026-250300-
   North Central Minnesota

CITY           SKY/WX    TMP DP  RH WIND       PRES   REMARKS
BAUDETTE       CLOUDY    34  32  92 NE8       29.65S WCI  27
FLAG ISLAND    CLOUDY    30  28  93 NE17      29.71R WCI  18
INTL FALLS     LGT RAIN  36  33  89 E14G23    29.67S
WASKISH        CLOUDY    37  37 100 E13       29.60S
BIG FORK       RAIN      39  36  87 E7        29.63F
LONGVILLE      LGT RAIN  43  39  87 CALM      29.58R
GRAND RAPIDS   LGT RAIN  40  35  83 E6        29.63R
CRANE LAKE     RAIN      34  32  93 CALM      29.76R
ORR            LGT RAIN  36  32  87 E5        29.66F
COOK           LGT RAIN  36  34  93 E9        29.67F
WALKER         LGT RAIN  42  40  94 E5        29.58R
$$
MNZ012-019>021-037-250300-
   Northeast Minnesota

CITY           SKY/WX    TMP DP  RH WIND       PRES   REMARKS
DULUTH         LGT RAIN  36  32  85 E14       29.65F
ELY            CLOUDY    37  28  70 NE5       29.71R
HIBBING        CLOUDY    37  34  89 E8        29.62F
EVELETH        LGT RAIN  37  32  81 E9        29.65F
DULUTH HARBOR  CLOUDY    37  36  93 NE24      29.70F
TWO HARBORS    CLOUDY    39  34  81 NE9G16    29.67F
SILVER BAY     DRIZZLE   37  34  87 NE9G16    29.70S
GRAND MARAIS     N/A     43  32  65 NE13G24   29.73S
G MARAIS ARPRT CLOUDY    34  27  75 N15G23    29.72S WCI  24
$$
MNZ029>031-032-039>041-046>048-054>057-064-250300-
   West Central Minnesota

CITY           SKY/WX    TMP DP  RH WIND       PRES   REMARKS
FERGUS FALLS   CLOUDY    46  46 100 NW9       29.52R
WHEATON        CLOUDY    45  39  81 NW16G24   29.58R
MORRIS         CLOUDY    52  48  87 NW17      29.52R
ALEXANDRIA     CLOUDY    58  42  55 S8        29.51R
ELBOW LAKE     CLOUDY    49  48  97 NW9       29.52R
WADENA         CLOUDY    48  45  87 NE6       29.52S
GLENWOOD       LGT RAIN  55  45  67 SE7       29.51S
APPLETON       CLOUDY    54  46  76 NW12      29.52R
BENSON         CLOUDY    63  37  39 S5        29.50S
ORTONVILLE     CLOUDY    46  43  87 NW17G24   29.54R
MADISON        CLOUDY    55  48  76 NW15      29.52R
WILLMAR        LGT RAIN  59  45  58 E7        29.51R
$$
MNZ033>034-036-042>043-049>051-058-059-250300-
   Central Minnesota

CITY           SKY/WX    TMP DP  RH WIND       PRES   REMARKS
ST CLOUD       CLOUDY    56  41  57 NE3       29.52F
SAUK CENTRE    LGT RAIN  54  44  68 CALM      29.52R
PAYNESVILLE    CLOUDY    59  40  49 E5        29.51F
AITKIN         CLOUDY    43  36  75 E5        29.57R
PINE RIVER     DRIZZLE   46  43  87 N5        29.61R
BRAINERD       CLOUDY    55  40  56 E3        29.54F
STAPLES        LGT RAIN  48  46  93 NE7       29.53S
LONG PRAIRIE   CLOUDY    54  41  62 E7        29.52F
LITTLE FALLS   LGT RAIN  55  41  58 NE3       29.53F
LITCHFIELD     DRIZZLE   64  39  39 S6        29.52F
BUFFALO        CLOUDY    63  32  31 SE7       29.54S
MAPLE LAKE     CLOUDY    62  40  44 S5        29.54R
HUTCHINSON     CLOUDY    64  41  42 S9        29.53F
$$
MNZ037-044-045-052-053-250300-
   East Central Minnesota

CITY           SKY/WX    TMP DP  RH WIND       PRES   REMARKS
PRINCETON      CLOUDY    61  36  39 SE6       29.53F
MORA           CLOUDY    55  34  44 E6        29.56F
CAMBRIDGE      CLOUDY    66  43  42 SE6       29.53F
RUSH CITY      RAIN      63  33  33 SE7       29.56F
MOOSE LAKE     CLOUDY    36  32  87 E5        29.60R
HINCKLEY       CLOUDY    61  34  36 SE7       29.57S
CLOQUET        CLOUDY    36  32  87 E13G22    29.63S
MCGREGOR       CLOUDY    37  36  93 E7        29.60R
$$
MNZ071>073-080-081-089-090-097-098-250300-
   Southwest Minnesota

CITY           SKY/WX    TMP DP  RH WIND       PRES   REMARKS
MONTEVIDEO     CLOUDY    61  45  55 CALM      29.49R
GRANITE FALLS  CLOUDY    62  47  57 SE8       29.50R
CANBY          CLOUDY    55  47  74 W10       29.53R
MARSHALL       MOCLDY    58  47  66 NW7       29.51R
REDWOOD FALLS  CLOUDY    62  43  49 S13       29.50S
OLIVIA         CLOUDY    63  41  45 S10       29.50R
PIPESTONE      MOCLDY    57  41  54 N8        29.52R
WINDOM         CLOUDY    59  45  58 SE5       29.51F
WORTHINGTON    CLOUDY    57  47  69 SE5       29.51S
JACKSON        CLOUDY    57  46  67 SE3       29.52F
TRACY          CLOUDY    62  44  50 S7        29.50S
SLAYTON        CLOUDY    57  43  59 S5        29.51S
$$
MNZ065>067-074>077-082>085-091>093-250300-
   South Central Minnesota

CITY           SKY/WX    TMP DP  RH WIND       PRES   REMARKS
MANKATO        CLOUDY    66  32  28 S13       29.54F
NEW ULM        RAIN      61  45  55 W5        29.53S
ST JAMES       LGT RAIN  61  39  44 SE3       29.54R
FAIRMONT       LGT RAIN  62  39  42 S9        29.54R
GLENCOE        CLOUDY    65  37  35 S6        29.53S
FARIBAULT      CLOUDY    66  30  26 SE12G20   29.58S
OWATONNA       CLOUDY    66  28  24 S12       29.58S
WASECA         CLOUDY    63  32  31 SE9       29.57S
ALBERT LEA     PTCLDY    63  28  27 S9        29.57F
$$
MNZ078>079-086>088-094>096-250300-
   Southeast Minnesota

CITY           SKY/WX    TMP DP  RH WIND       PRES   REMARKS
ROCHESTER      CLOUDY    59  35  40 SE9       29.62S
RED WING       CLOUDY    66  27  22 S6        29.60R
STANTON        CLOUDY    68  29  23 S20G28    29.57S
DODGE CENTER   LGT RAIN  61  36  39 E3        29.61S
WINONA         CLOUDY    63  34  34 CALM      29.63R
AUSTIN         MOCLDY    63  30  29 SE7       29.60S
PRESTON        CLOUDY    63  29  28 S10       29.63R
$$
ABBREVIATIONS USED IN REMARKS
   TC - TEMPERATURES IN CELSIUS
  WCI - WIND CHILL INDEX
   HX - HEAT INDEX
  VSB - VISIBILITY
$$




USA.gov is the U.S. government's official web portal to all federal, state and local government web resources and services.